KUIPER-00151 (65771 NORAD) Tracking and Keplerian Element Data

This shows tracking and keplerian element data for the satellite.

Feedback or suggestion? Click here.




ElementValue
Catalog65771
NameKUIPER-00151
Epoch Orbit560
Epoch Day354.25003472
Epoch Year2025
RAAN34.6799
Inclination51.8985
Eccentricity0.000223
Argument of Perigee60.0422
Mean Anonmoly220.2404
Mean Motion14.87909421
Decay Rate-0.00053459
L11 65771U 25217K 25354.25003472 -.00053459 00000+0 -57992-2 0 9996
L22 65771 51.8985 34.6799 0002230 60.0422 220.2404 14.87909421 5603



Live tracking and technical data element details for KUIPER-00151 (NORAD 65771). KUIPER-00151 can be tracked NOW for your location showing map with azimuth and elevation plus other details from your city location.







IsCatalogInMostPopularTable: catalog: 65771, numindb: 5
Update: records affected: 1



GetName: 65771 KUIPER-00151

Hit Count: updated at: Tue, 21 Apr 2026 19:50:32 GMT